Content
SEND FEEDBACK

Daily
Averages
Monthly
Summary
United States of America

SPURGER, TEXAS


Home > North America > United States > Texas
Elevation: 133 feet     Latitude: 30 48N     Longitude: 094 11W

WEATHER
 
SELECT A DAY
Number of Records: 206,764;   Date Range: 3/13/02 - 9/18/14
 
SHARE

PRINT THIS DATA

[ ← Previous Day ]
WEATHER ALMANAC - JANUARY 31, 2013
[ Next Day → ]
[ °C ]   °F
Weather ElementAverageHighLow
Temperature47.8 °F65.7 °F (3:15 pm)30.9 °F (6:55 am)
Dewpoint31.2 °F41 °F (9:35 pm)24.3 °F (12:55 pm)
Humidity62.4 %100 % (1:55 am)21 % (3:35 pm)
Barometer30.28 in30.34 in (11:15 pm)30.23 in (2:55 am)
Wind Speed3.6 mph12.7 mph (3:15 pm)
Wind Gust17.3 mph (4:35 pm)
Weather ElementAverage
Visibility10 mi
Wind DirectionESE (99.3 °)

Weather ElementTotal
Precipitation---
Heating Degree Days16.7 (Base 65)
Averaged from 67 records on January 31, 2013
WEATHER CONDITIONS BREAKOUT
WIND DIRECTION BREAKOUT
WEATHER BY HOUR - JANUARY 31, 2013
[ °C ]   °F
Local TimeTemperatureDewpointHumidityBarometerVisibilityWind DirectionWind SpeedGust SpeedPrecipitationEventsConditions
12:35 AM34.7 °F34.2 °F98 %30.24 in10.0 miCalmClear
12:55 AM34.0 °F33.8 °F99 %30.25 in10.0 miCalmClear
1:15 AM33.6 °F33.3 °F99 %30.25 in10.0 miCalmClear
1:35 AM33.3 °F33.1 °F99 %30.26 in10.0 miCalmClear
1:55 AM33.1 °F33.1 °F100 %30.26 in10.0 miCalmClear
2:15 AM32.9 °F32.9 °F100 %30.25 in10.0 miCalmClear
2:35 AM32.5 °F32.5 °F100 %30.25 in10.0 miCalmClear
2:55 AM32.0 °F32.0 °F100 %30.23 in10.0 miCalmClear
3:15 AM32.0 °F32.0 °F100 %30.23 in10.0 miCalmClear
3:35 AM32.0 °F32.0 °F100 %30.23 in10.0 miCalmClear
3:55 AM31.8 °F31.8 °F100 %30.23 in10.0 miCalmClear
4:15 AM31.8 °F31.8 °F100 %30.23 in10.0 miCalmClear
4:35 AM31.5 °F31.5 °F100 %30.23 in10.0 miCalmClear
4:55 AM31.5 °F31.5 °F100 %30.23 in10.0 miCalmClear
5:15 AM31.3 °F31.3 °F100 %30.23 in10.0 miCalmClear
5:35 AM31.3 °F31.3 °F100 %30.24 in10.0 miCalmClear
5:55 AM31.1 °F31.1 °F100 %30.24 in10.0 miCalmClear
6:15 AM31.1 °F31.1 °F100 %30.26 in10.0 miCalmClear
6:55 AM30.9 °F30.9 °F100 %30.27 in10.0 miCalmClear
7:15 AM30.9 °F30.9 °F100 %30.27 in7.0 miCalmClear
7:35 AM30.9 °F30.7 °F99 %30.28 in10.0 miCalmClear
7:55 AM31.5 °F31.5 °F100 %30.29 in10.0 miCalmClear
8:15 AM32.9 °F32.5 °F99 %30.30 in10.0 miCalmClear
8:35 AM36.1 °F34.2 °F93 %30.31 in10.0 miCalmClear
8:55 AM39.6 °F35.4 °F85 %30.31 in10.0 miCalmClear
9:15 AM43.5 °F36.3 °F76 %30.32 in10.0 miSSW (210°)3.5 mphClear
9:35 AM46.4 °F36.5 °F68 %30.33 in10.0 miSouth (190°)4.6 mphClear
9:55 AM49.6 °F36.0 °F59 %30.33 in10.0 miSW (220°)4.6 mphClear
10:15 AM53.1 °F32.4 °F45 %30.33 in10.0 miSSW (210°)10.4 mphClear
10:35 AM54.7 °F29.1 °F38 %30.33 in10.0 miSSW (200°)8.1 mphClear
10:55 AM56.5 °F28.8 °F35 %30.33 in10.0 miSSW (210°)8.1 mphClear
11:15 AM58.3 °F27.0 °F30 %30.33 in10.0 miSSW (200°)10.4 mphClear
11:35 AM59.4 °F24.6 °F26 %30.32 in10.0 miSW (220°)10.4 mph16.1 mphClear
11:55 AM60.3 °F24.4 °F25 %30.31 in10.0 miSW (230°)9.2 mphClear
12:15 PM61.0 °F25.0 °F25 %30.30 in10.0 miSW (230°)6.9 mphClear
12:35 PM61.5 °F24.6 °F24 %30.29 in10.0 miSW (220°)9.2 mphClear
12:55 PM62.4 °F24.3 °F23 %30.28 in10.0 miSW (230°)8.1 mphClear
1:15 PM63.1 °F25.2 °F24 %30.27 in10.0 miSSW (210°)9.2 mphClear
1:35 PM63.9 °F25.2 °F23 %30.27 in10.0 miSouth (190°)9.2 mphClear
1:55 PM64.4 °F24.4 °F22 %30.26 in10.0 miSSW (210°)8.1 mphClear
2:15 PM64.4 °F24.4 °F22 %30.26 in10.0 miSSW (210°)5.8 mphClear
2:35 PM65.1 °F25.9 °F23 %30.25 in10.0 miSW (230°)5.8 mphClear
2:55 PM65.3 °F26.4 °F23 %30.26 in10.0 miSSW (200°)10.4 mphClear
3:15 PM65.7 °F26.1 °F22 %30.24 in10.0 miSouth (190°)12.7 mph16.1 mphClear
3:35 PM65.7 °F24.4 °F21 %30.24 in10.0 miSW (230°)8.1 mph16.1 mphClear
3:55 PM65.3 °F24.4 °F21 %30.25 in10.0 miSSW (210°)8.1 mphClear
4:15 PM65.3 °F25.2 °F22 %30.24 in10.0 miSSW (200°)8.1 mph16.1 mphClear
4:35 PM64.9 °F25.5 °F23 %30.24 in10.0 miSSW (200°)10.4 mph17.3 mphClear
4:55 PM64.2 °F25.0 °F23 %30.25 in10.0 miSSW (200°)8.1 mphClear
5:15 PM63.5 °F25.7 °F24 %30.24 in10.0 miSSW (210°)6.9 mphClear
5:35 PM61.7 °F27.3 °F27 %30.25 in10.0 miSouth (190°)4.6 mphClear
6:15 PM55.8 °F31.8 °F40 %30.25 in10.0 miSouth (170°)3.5 mphClear
6:35 PM54.5 °F32.7 °F44 %30.25 in10.0 miCalmClear
7:15 PM52.5 °F34.2 °F50 %30.26 in10.0 miSouth (190°)3.5 mphClear
7:35 PM52.0 °F34.5 °F51 %30.27 in10.0 miSouth (190°)6.9 mphClear
7:55 PM53.1 °F34.3 °F49 %30.28 in10.0 miSSW (210°)8.1 mphClear
8:15 PM53.8 °F34.0 °F47 %30.31 in10.0 miSW (220°)4.6 mphClear
8:35 PM52.3 °F34.2 °F50 %30.32 in10.0 miCalmClear
8:55 PM50.7 °F34.7 °F54 %30.33 in10.0 miCalmClear
9:15 PM48.7 °F38.1 °F67 %30.33 in10.0 miCalmClear
9:35 PM47.5 °F41.0 °F78 %30.33 in10.0 miCalmClear
9:55 PM48.4 °F38.7 °F69 %30.33 in10.0 miCalmClear
10:15 PM50.4 °F36.1 °F58 %30.32 in10.0 miCalmClear
10:35 PM50.9 °F37.0 °F59 %30.33 in10.0 miSW (220°)3.5 mphClear
10:55 PM49.6 °F38.3 °F65 %30.33 in10.0 miCalmClear
11:15 PM49.3 °F39.0 °F68 %30.34 in10.0 miCalmClear
11:35 PM49.5 °F39.2 °F68 %30.33 in10.0 miCalmClear
Hourly data recorded from KJAS, located miles away from Spurger, Texas







STORIES FROM OUR PARTNERS